Torna al catalogo

FENGYUN 1C DEB

AttivoSSO
NORAD 30540·DEBRIS·🇨🇳 China

Lanciato May 10, 1999 da Taiyuan Satellite Launch Center

Loading…

Prossimi Passaggi (prossime 24 ore)

TLE

AggiornatoSource: Space-Track

Epoca: Sep 13, 2026, 14:03 UTC

1 30540U 99025AKE 26256.58593924  .00002679  00000-0  94700-3 0  9990
2 30540  98.8891  17.1780 0049635 335.4493 152.4328 14.34824833 12243

Traccia FENGYUN 1C DEB in tempo reale con AllMySat

Download on the App Store